Flag for Canada Weather past 2 weeks in Rankin Inlet, Nunavut, Canada

Now
36 °F

Broken clouds.


Feels Like: 23 °F
Forecast: 22 / 34 °F
Wind: 28 mph from North

Location: Rankin Inlet

Current Time: May 22, 2015 at 3:12:54 PM

Latest Report: May 22, 2015 at 2:00 PM


Visibility: 15 mi

Pressure: 29.90 "Hg

Humidity: 70%

Dew point: 27 °F

Location of Rankin InletLocation

Historic Weather in Rankin Inlet — Graph

°F

Rankin Inlet temperature yesterday

Maximum temperature yesterday: 39 °F (at 5:00 PM)
Minimum temperature yesterday: 16 °F (at 4:00 AM)
Average temperature yesterday: 28 °F

Past Weeks' High & Low Weather Summary

 TemperatureHumidityPressure
High39 °F (May 15, 6:00 PM)93% (May 11, 12:00 AM)30.43 "Hg (May 11, 12:00 AM)
Low3 °F (May 9, 5:00 AM)48% (May 21, 1:00 PM)29.36 "Hg (May 15, 6:00 PM)
Average24 °F79%30.12 "Hg
* Reported May 7 2:00 PM — May 22 2:00 PM, Rankin Inlet, Weather by CustomWeather, © 2015

Note: Actual official high and low records may vary slightly from our data, if they occured in-between our weather recording intervals... More about our weather records

Advertising

Rankin Inlet weather history for previous 24 hours

 ConditionsComfort  
Time TempWeatherWind HumidityBarometerVisibility
2:00 PM
Fri, May 22
36 °FBroken clouds.28 mph70%29.90 "Hg15 mi
1:00 PM36 °FMore clouds than sun.21 mph70%29.89 "Hg15 mi
12:00 PM36 °FBroken clouds.24 mph81%29.86 "Hg15 mi
11:00 AM37 °FMostly cloudy.21 mph81%29.84 "Hg15 mi
10:00 AM36 °FLow clouds.25 mph87%29.81 "Hg15 mi
9:00 AM36 °FLow clouds.24 mph87%29.78 "Hg15 mi
8:00 AM34 °FPassing clouds.26 mph87%29.76 "Hg15 mi
7:00 AM32 °FPassing clouds.26 mph93%29.73 "Hg15 mi
6:00 AM32 °FScattered clouds.16 mph93%29.73 "Hg15 mi
5:00 AM32 °FBroken clouds.18 mph93%29.72 "Hg15 mi
4:00 AM32 °FPassing clouds.14 mph93%29.71 "Hg15 mi
3:00 AM32 °FPartly cloudy.8 mph93%29.73 "Hg15 mi
2:00 AM34 °FPartly cloudy.13 mph87%29.75 "Hg15 mi
1:00 AM34 °FPartly cloudy.12 mph87%29.78 "Hg15 mi
12:00 AM34 °FPartly cloudy.15 mph87%29.80 "Hg15 mi
11:00 PM
Thu, May 21
34 °FBroken clouds.18 mph87%29.83 "Hg15 mi
10:00 PM34 °FBroken clouds.14 mph87%29.88 "Hg15 mi
9:00 PM34 °FBroken clouds.10 mph87%29.92 "Hg15 mi
8:00 PM36 °FBroken clouds.14 mph75%29.95 "Hg15 mi
7:00 PM37 °FBroken clouds.14 mph70%29.99 "Hg15 mi
6:00 PM39 °FBroken clouds.15 mph61%30.02 "Hg15 mi
5:00 PM39 °FScattered clouds.14 mph56%30.04 "Hg15 mi
4:00 PM37 °FPartly sunny.14 mph60%30.06 "Hg15 mi
3:00 PM37 °FScattered clouds.14 mph56%30.09 "Hg15 mi
Weather by CustomWeather, © 2015

See weather overviewHow to use our weather pages